Tracking 19293 objects as of 21-Nov-2018
HD Live streaming from Space Station
objects crossing your sky now

FLOCK 1C 5

Track FLOCK 1C 5 now!
10-day predictions
FLOCK 1C 5 is classified as:


NORAD ID: 40038
Int'l Code: 2014-033AE
Perigee: 595.6 km
Apogee: 616.4 km
Inclination: 97.9 °
Period: 96.7 minutes
Semi major axis: 6977 km
RCS: Unknown
Launch date: June 19, 2014
Source: United States (US)
Launch site: Orenburg, Russia (OREN)
aabbcc
Your satellite tracking list
Your tracking list is empty




NASA's NSSDC Master Catalog

Two Line Element Set (TLE):
1 40038U 14033AE  18324.02887338  .00000603  00000-0  68935-4 0  9997
2 40038  97.9222 242.2897 0014919  25.1349 335.0591 14.89690702240031
Source of the keplerian elements: AFSPC